User: anonymous
Location: Lone Wolf Observatory
(41.0360°N, 89.2260°W)
Time: 14:03:27
(UTC-05:00)
Language:

Cosmos 1378 Rocket - Orbit

View from above orbital plane
View from above orbital plane
View from above satellite
View from above satellite

Ground track
Ground track

The orbit data is extracted from the following two-line orbital elements,

1 13272U 82059B   14107.14856565  .00000432  00000-0  49022-4 0  7170
2 13272 082.5095 145.9806 0017860 341.6910 018.3660 14.83954151720256
Epoch (UTC): 17 April 2014 03:33:56
Eccentricity: 0.0017860
inclination: 82.5095°
perigee height: 604 km
apogee height: 629 km
right ascension of ascending node: 145.9806°
argument of perigee: 341.6910°
revolutions per day: 14.83954151
mean anomaly at epoch: 18.3660°
orbit number at epoch: 72025

The dashed part of the orbit path shows where the satellite is in the earth's shadow,  

DLR